Temperature
12 12 13 13 13 13 14 14 14 14 14 15 15 15 15 15 15 15 15 15 15 15 15 15 15 15 15 15 15 15 15 15 15 15 15 15 15 14 14 14 14 14 14
11 12 12 12 13 13 13 14 14 14 14 14 14 14 14 14 14 14 14 14 14 14 14 14 15 15 15 15 15 15 15 15 15 15 14 14 14 14 14 14 14 14 14
11 11 12 12 13 13 13 13 14 14 14 14 14 14 14 14 14 14 14 14 14 14 14 14 14 14 14 14 14 14 15 15 14 14 14 14 14 14 14 14 14 14 14
11 11 12 12 12 13 13 13 13 13 14 14 14 14 14 14 14 14 14 14 14 14 14 14 14 14 14 14 14 14 14 14 14 14 13 13 13 14 14 14 14 14 14
10 11 12 12 12 12 13 13 13 13 13 13 14 14 14 14 14 14 14 14 14 14 14 14 14 14 14 14 14 14 14 14 14 14 13 13 13 14 14 14 14 14 14
10 11 11 12 12 12 12 13 13 13 13 13 13 13 13 13 13 13 13 13 13 14 13 14 14 14 14 14 14 14 14 14 14 13 13 13 13 13 14 14 13 14 14
10 10 11 11 11 12 12 12 12 12 12 13 13 13 13 13 13 13 13 13 13 13 13 13 13 14 14 14 14 14 14 14 13 13 13 13 13 13 13 13 13 13 13
9 10 10 10 11 11 11 12 12 12 12 12 12 13 13 13 13 13 13 13 13 13 13 13 13 13 14 14 14 14 14 14 13 13 13 13 13 13 13 13 13 13 13
9 9 10 10 10 11 11 11 11 11 12 12 12 12 12 12 12 12 12 13 13 13 13 13 13 13 13 13 13 13 13 13 12 13 12 12 13 13 13 13 13 13 13
9 9 9 9 10 10 10 10 11 11 11 11 11 11 12 12 12 12 12 12 12 12 12 12 13 13 13 13 13 13 13 13 12 12 12 12 13 13 13 13 13 13 13
8 8 9 9 9 9 9 10 10 10 10 10 11 11 11 11 11 11 11 11 12 12 12 12 12 13 13 13 13 13 12 12 12 12 12 12 12 12 12 12 12 13 12
8 8 8 8 8 9 9 9 9 9 10 10 10 10 10 10 11 11 11 11 11 11 12 12 12 12 12 12 12 12 12 12 11 12 12 12 12 12 12 12 12 12 12
7 7 7 8 8 8 8 8 8 9 9 9 9 9 10 10 10 10 10 10 11 11 11 11 11 11 11 11 11 11 11 11 11 11 12 12 12 12 12 12 12 12 12
6 7 7 7 7 8 8 8 8 8 8 8 9 9 9 9 9 9 10 10 10 10 10 11 11 11 11 11 11 11 11 11 11 11 11 12 12 12 12 12 12 12 12
6 6 6 6 7 7 7 7 7 7 7 7 8 8 8 8 9 9 9 9 9 9 10 10 10 10 10 10 10 10 10 11 11 11 11 11 12 11 11 11 12 12 12
5 5 6 6 6 6 6 6 7 7 7 7 7 7 7 8 8 8 8 8 8 9 9 9 9 9 10 10 10 10 10 10 10 10 11 11 11 11 11 11 11 11 11
5 5 5 5 5 6 6 6 6 6 6 6 6 6 7 7 7 7 7 8 8 8 8 8 8 9 9 9 9 9 10 10 10 10 10 10 10 11 11 11 11 11 11
4 4 5 5 5 5 5 5 5 5 5 6 6 6 6 6 6 6 7 7 7 7 7 8 8 8 8 8 8 9 9 9 9 10 10 10 10 10 10 10 11 11 11
4 4 4 4 4 5 5 5 5 5 5 5 5 5 5 5 6 6 6 6 7 7 7 7 7 7 7 8 8 8 8 9 9 9 9 9 9 10 10 10 10 10 10
3 3 3 4 4 4 4 4 4 4 4 4 4 5 5 5 5 5 5 6 6 6 6 6 6 7 7 7 7 7 8 8 8 9 9 9 9 9 9 9 10 10 10
2 3 3 3 3 3 3 4 4 4 4 4 4 4 4 4 4 4 5 5 5 5 5 6 6 6 6 6 6 7 7 8 8 8 8 8 9 9 9 9 9 9 9
2 2 2 2 2 3 3 3 3 3 3 3 3 3 4 4 4 4 4 4 4 4 5 5 5 5 6 6 6 6 7 7 7 8 8 8 8 8 8 8 9 9 9
1 1 2 2 2 2 2 2 2 2 2 2 2 3 3 3 3 3 3 3 4 4 4 4 4 5 5 5 5 5 6 7 6 7 7 7 7 8 8 8 8 8 8
1 1 1 1 1 1 1 1 2 2 2 2 2 2 2 2 3 3 3 3 3 3 4 4 4 4 4 4 5 5 5 5 6 6 6 7 7 7 7 7 7 8 8
0 1 1 1 1 1 1 1 1 1 1 1 1 1 2 2 2 2 2 2 2 3 3 3 3 3 3 4 4 4 5 5 5 5 6 6 6 6 7 7 7 7 7
0 0 0 0 0 0 0 0 0 0 1 1 1 1 1 1 1 2 2 2 2 2 2 3 3 3 3 3 3 4 4 4 4 5 5 5 6 6 6 6 6 7 7
Wind_Speed
2 6 7 8 8 9 10 10 9 10 10 9 9 8 8 8 8 9 10 10 10 10 11 12 12 13 13 13 14 14 14 15 15 14 14 14 14 14 14 13 12 15 16
2 3 5 7 7 9 10 11 10 10 10 10 9 9 9 8 8 9 9 9 10 10 11 12 12 12 12 13 13 14 14 14 14 13 12 13 14 14 13 13 12 14 15
2 3 4 7 8 9 10 11 10 10 9 9 10 9 9 9 8 9 9 9 10 10 10 11 12 12 12 12 13 13 13 13 12 10 9 11 12 13 13 13 14 14 14
2 3 4 7 8 9 9 10 10 10 9 9 9 9 9 9 9 8 8 9 9 9 10 11 11 11 11 12 12 12 12 12 10 7 8 10 11 13 12 13 13 13 14
3 4 5 7 8 9 10 9 9 9 10 10 9 9 9 9 9 8 8 8 9 9 9 9 10 11 11 11 11 11 11 10 8 6 9 9 10 12 12 12 13 13 13
4 5 6 7 8 9 10 10 10 9 10 10 10 9 8 9 8 8 8 8 8 8 8 8 9 10 10 10 10 10 9 7 5 7 8 8 9 10 10 11 11 11 11
5 6 6 7 9 9 9 10 9 10 9 9 10 10 9 8 8 8 7 7 7 7 7 7 8 9 9 9 9 8 8 5 5 7 6 7 8 9 9 9 10 10 10
5 6 7 8 9 9 9 9 9 9 9 9 9 10 9 9 7 7 7 7 6 6 7 7 7 8 8 8 8 7 6 3 5 6 6 6 8 7 8 8 9 9 9
6 6 7 6 7 8 9 10 9 9 9 10 10 10 10 9 7 6 6 6 5 5 6 6 7 7 7 7 7 6 5 2 4 5 5 6 7 7 7 7 8 8 8
6 6 6 6 6 6 6 9 9 9 9 10 11 11 9 8 7 6 5 5 5 5 5 5 6 6 6 6 6 5 4 1 3 4 4 6 6 6 6 7 7 8 8
6 6 6 6 6 5 5 6 7 8 9 9 8 9 7 5 5 4 4 5 5 4 4 4 5 5 5 5 5 4 2 1 2 2 3 5 5 5 5 5 6 7 7
5 6 6 6 6 5 5 5 5 5 5 6 6 5 5 4 4 4 5 4 5 4 3 3 4 4 3 3 4 3 2 1 1 2 2 3 3 4 5 5 5 6 6
3 5 6 6 6 5 4 4 4 4 4 4 5 5 4 4 3 3 3 3 2 2 1 2 3 2 1 2 3 3 2 1 1 1 2 2 2 3 4 4 5 5 5
3 4 5 6 6 5 4 3 3 3 3 3 4 4 4 3 3 3 2 3 2 1 1 1 1 1 1 2 3 3 2 1 1 1 1 1 1 3 4 4 5 5 5
3 4 5 6 6 6 4 3 3 3 3 3 2 3 3 3 2 3 2 2 3 2 1 2 1 1 2 2 2 3 3 3 2 2 1 1 1 2 3 4 4 4 4
2 3 4 5 6 6 4 3 3 2 2 2 2 3 3 3 3 3 2 2 3 3 2 2 2 2 2 2 3 3 3 3 3 3 3 3 2 3 3 4 4 4 4
1 2 3 4 5 5 5 4 2 2 2 2 3 3 3 3 3 3 2 2 3 4 3 3 2 2 2 2 3 4 3 4 4 4 4 4 4 4 4 4 4 4 4
1 2 3 3 4 5 5 4 3 2 2 2 2 3 3 3 4 3 2 3 3 4 3 3 2 2 3 3 3 3 4 4 5 5 5 4 4 5 5 5 4 4 5
1 1 2 3 4 5 5 4 3 2 2 2 2 3 4 4 4 4 3 3 4 4 3 3 3 3 3 3 3 4 4 4 5 5 5 5 5 5 5 6 6 5 5
1 1 2 3 4 4 4 4 3 2 2 2 3 3 4 4 5 4 4 4 4 3 3 3 4 3 3 3 3 4 5 5 5 6 6 5 5 6 6 6 6 6 7
0 1 2 3 3 3 3 2 2 2 2 2 3 3 4 4 5 5 4 4 4 4 4 5 4 4 3 2 3 3 4 6 6 5 5 5 5 6 6 6 6 5 6
1 1 1 2 2 3 3 2 2 3 3 3 3 4 4 4 5 5 5 4 4 4 5 5 4 3 3 3 3 3 3 4 4 4 5 5 5 5 5 6 7 6 6
2 1 2 2 2 3 3 3 3 3 3 3 3 3 4 5 5 5 6 5 5 4 4 5 5 5 4 4 4 3 3 3 2 4 5 5 5 5 5 6 7 7 6
2 2 2 2 2 3 3 3 3 3 4 5 4 4 5 5 5 5 6 6 6 5 5 5 5 6 6 5 5 5 6 4 3 3 4 5 5 5 5 5 6 6 7
2 2 2 2 3 3 3 3 4 4 4 5 5 5 5 5 5 5 6 6 6 6 6 6 6 7 6 7 6 5 5 5 7 5 5 6 5 5 5 6 6 6 6
2 2 2 3 3 3 3 4 5 5 6 6 6 6 5 4 5 5 6 6 6 6 7 6 6 8 7 8 7 7 7 6 6 6 6 7 6 5 6 6 5 5 5
Wind_Direction
334 342 352 6 21 31 39 47 55 61 65 67 71 76 78 83 88 90 92 92 90 90 92 91 88 86 86 85 84 83 82 83 82 81 82 85 86 87 86 86 89 88 85
331 346 0 20 31 39 43 47 52 58 61 63 68 73 75 76 82 87 89 91 91 91 92 93 91 87 85 86 86 84 83 85 84 82 87 90 87 87 85 78 75 88 88
18 14 25 33 40 44 45 47 51 56 59 61 64 69 71 72 78 83 86 89 91 90 89 91 89 86 86 87 87 86 87 87 87 87 96 96 93 88 88 84 85 92 91
47 33 40 44 46 48 50 49 53 56 58 60 63 61 66 71 72 78 84 89 91 90 88 89 87 86 87 87 88 87 88 87 86 92 90 89 91 89 90 90 90 94 91
61 47 51 53 52 51 51 51 55 58 58 59 60 60 61 67 69 71 79 85 88 89 89 91 90 89 89 89 88 88 88 86 86 90 88 88 90 91 92 92 90 93 92
66 54 59 56 54 51 51 53 54 57 59 61 59 59 60 62 66 68 71 78 85 89 93 96 95 93 90 91 91 89 88 89 100 89 90 91 91 93 95 95 93 92 93
62 48 59 54 55 52 52 56 54 53 57 62 60 59 58 59 62 66 66 74 82 88 91 97 100 99 94 92 91 90 89 80 91 90 88 91 92 97 101 100 98 94 94
63 52 55 51 52 53 53 53 52 53 53 58 60 58 55 53 57 64 67 71 76 85 89 93 100 102 101 98 91 88 89 88 99 94 91 92 92 98 104 105 105 104 100
64 56 51 51 52 51 48 48 50 51 51 52 54 53 51 51 52 57 62 67 69 78 88 89 95 103 104 106 99 85 79 69 99 99 97 95 92 95 101 105 107 110 110
55 51 46 48 48 44 48 47 50 51 51 53 53 46 46 49 49 49 57 60 64 70 84 92 92 101 103 110 104 91 87 119 99 101 103 101 98 100 100 101 107 110 111
42 35 33 38 42 40 47 49 52 55 51 52 53 45 42 44 44 41 44 54 59 62 77 97 98 108 109 113 108 102 121 102 99 94 96 97 110 111 110 108 109 114 115
29 25 23 26 30 37 45 53 51 54 52 43 42 37 26 23 28 32 41 47 57 57 76 100 106 123 142 140 135 153 144 111 99 97 89 100 127 125 122 121 118 121 121
35 28 22 19 24 32 32 44 37 37 39 36 35 24 20 22 26 28 29 33 55 60 85 117 158 152 157 155 167 175 172 162 141 120 99 113 141 142 134 137 136 137 138
37 27 20 17 16 22 27 32 38 28 24 22 21 22 16 11 9 0 1 351 340 346 323 248 235 194 201 197 190 185 184 195 194 178 107 91 172 169 152 148 148 148 153
35 22 16 13 15 13 20 22 29 23 14 8 15 10 4 2 357 348 331 337 330 316 308 295 260 248 232 219 213 205 202 206 223 215 174 144 208 193 175 168 169 165 165
28 17 11 14 10 9 10 12 13 11 4 357 356 358 359 351 338 333 323 320 315 303 287 279 269 254 244 233 222 220 222 217 224 227 222 198 200 217 207 196 190 185 180
21 18 15 10 7 4 4 1 360 356 354 348 343 340 346 342 327 320 311 306 304 304 284 270 261 250 242 239 234 232 233 233 226 228 229 227 213 206 209 211 205 203 197
42 21 10 6 360 359 356 352 349 350 357 349 343 339 335 328 320 311 305 304 299 290 276 265 251 245 237 236 241 239 234 235 234 231 229 227 226 218 207 206 216 219 209
81 26 1 360 358 356 354 347 340 352 356 350 345 341 333 324 315 308 299 300 290 283 273 262 251 246 249 244 247 252 246 235 232 231 227 222 225 226 221 207 211 220 220
107 44 4 358 359 355 354 343 342 344 346 341 337 337 330 318 312 309 299 292 287 276 265 261 265 255 249 254 253 255 254 242 232 228 227 220 219 223 226 224 217 218 218
92 22 0 357 357 355 348 335 317 304 301 307 319 319 316 318 312 302 297 289 283 266 264 266 262 257 249 249 258 258 254 241 231 227 226 223 220 224 229 228 224 223 222
241 320 330 343 343 340 332 318 285 291 282 289 302 302 302 311 312 305 298 292 283 276 260 258 258 257 259 232 249 246 241 226 223 230 230 227 225 222 226 229 228 227 231
251 277 291 309 316 326 326 320 320 308 298 292 293 293 301 302 300 299 296 291 283 277 262 257 253 251 253 241 233 235 237 236 242 222 230 228 225 226 228 234 235 229 233
271 268 277 288 302 315 316 312 304 296 297 292 283 282 291 291 292 293 293 289 282 274 267 258 254 256 252 246 240 244 253 255 246 234 224 227 230 235 238 238 241 235 229
283 276 271 283 291 305 301 298 293 292 295 298 290 281 284 286 288 289 288 286 281 276 270 260 254 253 252 249 242 244 251 249 243 244 237 231 238 238 240 240 239 237 231
287 287 277 281 289 293 290 291 290 291 296 299 290 286 285 285 287 290 290 288 284 280 274 268 259 251 251 254 249 240 243 242 236 240 243 233 238 242 241 241 237 237 232
Height
1544 1544 1544 1545 1545 1546 1546 1546 1546 1546 1546 1546 1546 1546 1546 1546 1546 1545 1545 1545 1545 1545 1544 1544 1544 1544 1543 1543 1543 1543 1542 1542 1542 1542 1542 1541 1541 1542 1542 1542 1542 1542 1541
1544 1544 1544 1545 1546 1546 1546 1546 1546 1546 1547 1547 1547 1547 1546 1546 1546 1546 1546 1546 1546 1546 1546 1545 1545 1545 1545 1544 1544 1544 1544 1544 1544 1544 1544 1544 1543 1543 1543 1543 1543 1543 1543
1544 1544 1544 1545 1546 1546 1546 1546 1546 1547 1547 1547 1547 1547 1547 1547 1547 1547 1547 1547 1547 1547 1546 1546 1546 1546 1546 1546 1545 1545 1545 1545 1545 1546 1546 1546 1546 1545 1545 1545 1545 1545 1545
1544 1544 1545 1545 1545 1546 1546 1546 1546 1547 1547 1547 1547 1547 1547 1547 1547 1547 1547 1547 1547 1547 1547 1547 1547 1547 1547 1547 1547 1547 1547 1547 1547 1547 1548 1548 1548 1547 1547 1547 1547 1547 1547
1544 1545 1545 1545 1545 1546 1546 1546 1546 1547 1547 1547 1547 1548 1548 1547 1548 1548 1548 1548 1548 1548 1548 1548 1548 1548 1548 1548 1548 1548 1548 1548 1548 1549 1549 1549 1549 1548 1548 1548 1548 1548 1549
1545 1545 1545 1545 1545 1546 1546 1546 1546 1547 1547 1547 1547 1547 1547 1547 1548 1548 1548 1548 1548 1548 1548 1548 1548 1548 1548 1549 1549 1549 1549 1549 1550 1550 1550 1550 1550 1550 1550 1550 1550 1550 1550
1544 1545 1545 1545 1545 1545 1546 1546 1546 1546 1547 1547 1547 1547 1547 1547 1547 1547 1548 1548 1548 1548 1548 1549 1549 1549 1549 1549 1549 1549 1550 1550 1551 1551 1551 1551 1551 1550 1550 1550 1551 1551 1551
1544 1544 1544 1545 1545 1545 1545 1545 1546 1546 1546 1546 1546 1546 1547 1547 1547 1547 1548 1548 1548 1548 1548 1549 1549 1549 1549 1549 1550 1550 1550 1550 1551 1551 1551 1551 1551 1551 1551 1551 1551 1551 1551
1544 1544 1544 1544 1545 1545 1545 1545 1545 1545 1545 1545 1545 1546 1546 1546 1546 1547 1547 1547 1547 1548 1548 1548 1548 1549 1549 1549 1550 1550 1550 1551 1552 1552 1551 1551 1551 1551 1551 1551 1552 1552 1552
1544 1544 1544 1543 1544 1544 1544 1544 1544 1544 1544 1544 1544 1545 1545 1546 1546 1546 1546 1546 1547 1547 1547 1547 1548 1548 1549 1549 1549 1550 1550 1551 1552 1552 1552 1551 1551 1551 1551 1552 1552 1552 1552
1543 1543 1543 1543 1543 1543 1543 1543 1543 1543 1543 1543 1543 1543 1544 1545 1545 1545 1545 1545 1546 1546 1546 1547 1547 1547 1548 1549 1549 1550 1550 1551 1551 1551 1551 1551 1551 1551 1551 1552 1552 1552 1552
1542 1542 1542 1542 1542 1542 1542 1542 1542 1542 1542 1542 1542 1542 1543 1543 1543 1543 1544 1544 1545 1545 1545 1546 1546 1547 1547 1548 1548 1549 1550 1550 1550 1551 1551 1551 1551 1551 1551 1551 1552 1552 1552
1541 1541 1540 1540 1541 1541 1541 1541 1541 1541 1541 1541 1541 1541 1541 1541 1541 1542 1542 1543 1543 1543 1544 1544 1545 1546 1546 1546 1547 1548 1548 1549 1549 1550 1550 1550 1550 1550 1551 1551 1551 1552 1552
1540 1540 1540 1539 1540 1540 1540 1540 1540 1540 1539 1539 1539 1539 1539 1539 1540 1540 1540 1541 1541 1541 1542 1542 1543 1544 1544 1545 1546 1546 1547 1547 1548 1548 1549 1549 1549 1550 1550 1550 1551 1551 1551
1538 1538 1538 1538 1538 1538 1538 1539 1539 1538 1538 1538 1538 1538 1538 1537 1537 1538 1538 1539 1539 1539 1540 1540 1541 1542 1542 1543 1544 1544 1545 1546 1546 1546 1547 1547 1548 1549 1549 1549 1550 1550 1550
1537 1537 1537 1537 1537 1537 1537 1537 1537 1537 1537 1537 1536 1536 1536 1536 1535 1536 1536 1536 1537 1537 1538 1538 1539 1539 1540 1541 1541 1542 1543 1544 1544 1544 1545 1546 1546 1547 1547 1548 1548 1549 1549
1535 1535 1536 1536 1536 1536 1535 1535 1536 1535 1535 1535 1535 1534 1534 1534 1533 1534 1534 1534 1534 1535 1535 1536 1536 1537 1538 1538 1539 1540 1540 1541 1542 1542 1543 1543 1544 1545 1545 1546 1547 1547 1548
1533 1534 1534 1534 1534 1534 1534 1533 1533 1534 1533 1533 1533 1532 1532 1532 1532 1532 1532 1532 1532 1532 1533 1533 1534 1534 1535 1535 1536 1537 1537 1538 1539 1539 1540 1541 1542 1542 1543 1544 1545 1546 1546
1531 1532 1532 1532 1532 1532 1532 1532 1532 1531 1531 1531 1530 1530 1530 1529 1529 1529 1529 1529 1529 1530 1530 1531 1531 1531 1532 1532 1533 1534 1534 1535 1536 1536 1537 1538 1539 1540 1541 1541 1542 1543 1544
1530 1530 1531 1530 1530 1530 1530 1530 1529 1529 1529 1528 1528 1528 1527 1527 1527 1526 1526 1526 1527 1527 1527 1528 1528 1528 1529 1529 1530 1531 1531 1532 1532 1533 1534 1535 1536 1537 1538 1539 1539 1540 1541
1528 1528 1529 1528 1528 1527 1527 1527 1526 1526 1526 1525 1525 1525 1525 1524 1524 1523 1523 1523 1523 1523 1524 1524 1525 1525 1525 1526 1527 1528 1528 1529 1529 1530 1531 1532 1532 1533 1534 1535 1536 1537 1538
1526 1526 1526 1526 1526 1525 1525 1524 1524 1523 1523 1522 1522 1522 1521 1521 1520 1520 1520 1519 1519 1519 1520 1521 1521 1521 1522 1523 1525 1525 1526 1526 1525 1526 1527 1528 1529 1530 1531 1532 1533 1533 1534
1523 1523 1524 1523 1523 1523 1522 1522 1521 1520 1520 1520 1519 1518 1518 1517 1517 1517 1516 1516 1516 1516 1516 1517 1517 1518 1518 1519 1521 1523 1523 1521 1522 1522 1523 1524 1525 1526 1527 1528 1529 1529 1530
1521 1521 1521 1521 1521 1520 1520 1519 1518 1517 1516 1516 1515 1514 1514 1514 1514 1513 1513 1512 1512 1512 1512 1513 1513 1514 1515 1515 1516 1518 1519 1519 1520 1518 1519 1520 1521 1522 1523 1523 1524 1525 1526
1518 1518 1518 1518 1518 1518 1517 1516 1515 1515 1514 1513 1512 1511 1510 1510 1510 1509 1509 1508 1508 1508 1508 1508 1509 1509 1510 1511 1511 1512 1514 1514 1515 1515 1514 1515 1516 1517 1518 1519 1520 1520 1521
1515 1515 1515 1515 1515 1515 1514 1513 1513 1511 1510 1509 1508 1507 1506 1506 1505 1505 1505 1504 1504 1504 1504 1504 1504 1504 1505 1506 1507 1507 1509 1509 1510 1511 1510 1510 1511 1512 1513 1514 1515 1516 1516